Regional Weather Roundup
Issued by NWS

Home | Current Version | Previous Version | Graphics & Text | Print | Product List | Glossary Off
Versions: 1 2 3 4 5 6 7 8 9 10 11 12 13 14 15 16 17 18 19 20 21 22 23 24 25 26 27 28 29 30 31 32 33 34 35 36 37 38 39 40 41 42 43 44 45 46 47 48 49 50

000
ASUS43 KLOT 222112
RWRIL

ILLINOIS REGIONAL WEATHER ROUNDUP
NATIONAL WEATHER SERVICE CHICAGO/ROMEOVILLE IL
300 PM CST WED FEB 22 2017

NOTE: "FAIR" INDICATES FEW OR NO CLOUDS BELOW 12,000 FEET WITH NO
SIGNIFICANT WEATHER AND/OR OBSTRUCTIONS TO VISIBILITY.

* THESE STATIONS ARE NOT UNDER NWS QUALITY CONTROL. THEY ALSO MAY NOT
  REPORT WEATHER SUCH AS PRECIPITATION OR FOG.

ILZ001-002-007-009-015-016-024-222200-
NORTHWEST ILLINOIS

CITY           SKY/WX    TMP DP  RH WIND       PRES   REMARKS
MOLINE         SUNNY     72  54  53 S20G25    29.58F
STERLING*      SUNNY     69  56  62 S10       29.63F
SAVANNA*       SUNNY     73  51  46 S20       29.57F
$$

ILZ003-004-008-010-011-017-018-222200-
NORTH CENTRAL ILLINOIS

CITY           SKY/WX    TMP DP  RH WIND       PRES   REMARKS
ROCKFORD       MOSUNNY   70  51  51 S16G25    29.63F
FREEPORT*      SUNNY     68  53  58 S21       29.61F
ROCHELLE*      SUNNY     68  53  59 S18       29.64F
DE KALB*       MOSUNNY   65  56  73 S18       29.66F
PERU*          SUNNY     65  53  65 S15       29.67S
$$

ILZ005-006-012>014-019>023-222200-
NORTHEAST ILLINOIS

CITY           SKY/WX    TMP DP  RH WIND       PRES   REMARKS
CHICAGO-OHARE  MOSUNNY   67  53  61 S17       29.65F
CHICAGO-MIDWAY MOSUNNY   65  54  67 S17       29.67F
AURORA         SUNNY     67  53  61 S18G25    29.66F
LANSING*       PTSUNNY   64  59  83 S17       29.70F HAZE
JOLIET*        SUNNY     67  56  68 S15       29.69F
WAUKEGAN       SUNNY     68  50  52 SW16      29.62F
DUPAGE AIRPORT SUNNY     67  53  61 S17G23    29.65F
KANKAKEE*      MOSUNNY   67  57  68 S14G20    29.71F
WHEELING       SUNNY     66  51  58 SW13G23   29.66F
MORRIS*        SUNNY     67  55  63 S18       29.67F
ROMEOVILLE*    SUNNY     65  58  78 SW15      29.68F
NORTHERLY ISL    N/A     63  53  70 S16         N/A
$$

LMZ740>746-222200-
SOUTHERN LAKE MICHIGAN

STATION/POSITION SKY/WX   TEMP    WIND        PRES    VSBY  WAVE
                          AIR SEA DIR/SP/G                  HT/PER
                          (F)     (DEG/KT/KT) (MB)    (MI)  (FT/S)
HARRISON CRIB              58     200/ 19/ 20   N/A
BURNHAM HARBOR             64     190/ 11/ 20   N/A
CALUMET HARBOR             62     180/ 12/ 19 1004.8F
BURNS HARBOR               61     190/ 13/ 19 1006.4F
MICHIGAN CITY              60     190/ 19/ 21   N/A
$$

ILZ025>027-034>036-040-047-049-050-058-095>099-222200-
WEST-CENTRAL ILLINOIS

CITY           SKY/WX    TMP DP  RH WIND       PRES   REMARKS
QUINCY         SUNNY     68  54  60 S22G28    29.67F
GALESBURG*     SUNNY     68  57  68 S14G23    29.64F
MACOMB*        SUNNY     69  55  62 S17       29.68F
JACKSONVILLE*  MOSUNNY   63  56  79 S10       29.71F
PITTSFIELD*    SUNNY     67  57  70 SW14      29.71F
$$

ILZ028>032-037-038-041>044-048-051>054-059>061-222200-
CENTRAL ILLINOIS

CITY           SKY/WX    TMP DP  RH WIND       PRES   REMARKS
PONTIAC        MOSUNNY   68  59  73 SW17      29.71F
BLOOMINGTON    MOSUNNY   66  57  72 SW16G22   29.71F
DECATUR        SUNNY     69  55  60 SW15      29.73F
PEORIA         SUNNY     65  56  72 S16       29.68F
LACON*         SUNNY     66  55  68 SW10      29.67F
LINCOLN*       SUNNY     66  58  75 S8G17     29.72S
SPRINGFIELD    CLOUDY    62  56  80 S13       29.73F HAZE
TAYLORVILLE    SUNNY     67  57  68 SW10      29.74F
$$

ILZ033-039-045-046-055>057-062-063-222200-
EAST-CENTRAL ILLINOIS

CITY           SKY/WX    TMP DP  RH WIND       PRES   REMARKS
CHAMPAIGN      MOSUNNY   70  55  59 SW17      29.73F
RANTOUL*       MOSUNNY   71  57  61 SW14G25   29.73S
MATTOON        CLOUDY    67  58  72 S9        29.75S
PARIS*         CLOUDY    68  58  68 S13G18    29.76F
$$

ILZ079-100>102-222200-
SOUTHWEST ILLINOIS

CITY           SKY/WX    TMP DP  RH WIND       PRES   REMARKS
ALTON          MOSUNNY   68  55  64 SW7       29.74F
BELLEVILLE     MOSUNNY   74  57  54 VRB5      29.71F
CAHOKIA*       MOSUNNY   74  52  46 SW7G18    29.71F
SPARTA*        MOSUNNY   72  56  57 S10G21    29.76F
$$

ILZ064>066-069>071-074>076-080>082-084>086-088>090-092>094-222200-
SOUTH-CENTRAL ILLINOIS

CITY           SKY/WX    TMP DP  RH WIND       PRES   REMARKS
CARBONDALE     SUNNY     71  55  56 S18       29.77F
CAIRO*         SUNNY     69  58  68 S6        29.80F
EFFINGHAM*     CLOUDY    71  58  62 S10G17    29.76F
MARION         MOSUNNY   73  57  56 SW9       29.80S
MT. VERNON     MOSUNNY   73  56  54 S16       29.76F
CENTRALIA*     MOSUNNY   74  58  56 S14       29.74F
SALEM*         MOSUNNY   73  56  54 S13G22    29.75F
METROPOLIS*    MOSUNNY   71  57  60 CALM      29.81S
$$

ILZ067-068-072-073-078-083-087-091-222200-
SOUTHEAST ILLINOIS

CITY           SKY/WX    TMP DP  RH WIND       PRES   REMARKS
LAWRENCEVILLE  SUNNY     71  57  61 S14G22    29.76F
FLORA*         MOSUNNY   72  58  60 S15       29.76F
FAIRFIELD*     PTSUNNY   71  58  62 S9        29.76F
HARRISBURG*    MOSUNNY   72  57  58 SW13      29.79S
ROBINSON*      MOSUNNY   71  56  59 SW14G22   29.77S
CARMI*         MOSUNNY   68  57  68 S15       29.78F
$$

ABBREVIATIONS USED IN REMARKS
   TC - TEMPERATURE IN CELSIUS
  WCI - WIND CHILL INDEX
   HX - HEAT INDEX
  VSB - VISIBILITY
$$




USA.gov is the U.S. government's official web portal to all federal, state and local government web resources and services.